Location: Unspecified
(0.0000°N, 0.0000°E)
Time: 15:47:33
(UTC+00:00)

Daily predictions for brighter satellites

Satellite Brightness Start Highest point End
(mag) Time Altitude Azimuth Time Altitude Azimuth Time Altitude Azimuth
Ariane H10-3 4.4 18:27:18 10° W 18:31:44 76° S 19:01:03 10° E
Palapa B4 Rocket 3.6 18:30:26 10° WNW 18:35:46 47° NNE 18:39:37 10° E
Okean 1 3.4 18:35:17 10° N 18:39:15 55° E 18:43:14 10° SSE
Delta 198 3.9 18:35:17 10° WNW 18:40:05 70° NNE 18:45:51 10° ESE
H-2A ROCKET BODY 3.8 18:34:13 10° NW 18:45:06 23° N 18:49:06 10° NE
GPS 2-12 Rocket1 4.1 18:46:22 10° NW 18:50:09 28° NNE 18:53:21 13° ENE
ARIANE 5 R/B 1.1 18:48:36 10° W 18:51:23 49° N 18:52:42 16° ENE
Cosmos 44 Rocket 3.3 18:47:53 10° NNW 18:52:31 79° WSW 18:57:12 10° SSE
Ariane H10-3 2.3 18:50:09 10° WSW 18:53:25 69° S 19:02:02 13° E
SL-16 R/B 2.2 18:50:18 10° N 18:55:54 64° ENE 19:01:30 10° SSE
Meteor 1-5 Rocket 4.3 18:51:02 10° S 18:56:57 73° E 19:02:53 10° N
Meteor 1-29 4.0 18:54:39 10° NE 18:57:31 26° ESE 19:00:25 10° SSE
XTE 4.4 18:55:51 10° W 18:58:31 30° NNW 19:00:46 13° NE
Cosmos 1238 Rocket 2.8 18:55:32 10° NNE 18:58:37 41° E 19:02:12 10° SSE
Meteosat 1 Rocket2 3.9 18:55:37 10° NNW 18:58:43 26° NNE 19:00:47 17° ENE
NOAA 12 4.1 18:53:56 10° SSE 18:59:11 68° ENE 19:04:27 10° N
Cosmos 1536 Rocket 3.6 18:55:07 10° N 18:59:35 88° E 19:04:03 10° S
Cosmos 44 2.9 18:55:48 10° NNW 19:00:02 70° ENE 19:04:24 10° SSE
Cosmos 2082 3.9 18:58:37 10° S 19:04:08 50° ESE 19:09:38 10° NNE
PSLV R/B 3.9 19:05:15 10° NNW 19:08:06 32° NE 19:08:52 28° ENE
Resurs 01 Rocket 2.6 19:05:29 10° SE 19:09:08 25° ENE 19:12:45 10° NNE
SL-8 R/B 4.1 19:05:05 10° NNW 19:09:35 40° NE 19:12:38 19° ESE
Cosmos 1455 Rocket 3.8 19:06:36 10° SSE 19:10:29 30° E 19:12:53 18° NE
Cosmos 2322 Rocket 2.3 19:06:03 10° NNW 19:11:40 82° WSW 19:17:19 10° SSE
Cosmos 1461 3.2 19:08:44 10° N 19:12:44 43° ENE 19:16:54 10° SE
Cosmos 2074 Rocket 4.1 19:06:41 10° S 19:12:54 79° W 19:19:08 10° N
METEOR-M 4.2 19:07:36 10° S 19:12:58 84° WSW 19:18:18 10° NNW
Cosmos 1340 2.7 19:12:10 10° N 19:15:56 81° W 19:19:42 10° S
Cosmos 2184 Rocket 4.2 19:10:21 10° S 19:16:44 77° W 19:23:02 10° N
Intercosmos 24 4.4 19:14:08 10° SSW 19:17:36 53° W 19:21:18 10° N
GPS 2-17 Rocket1 3.0 19:15:11 10° WSW 19:19:55 82° SSE 19:22:00 32° ENE
SJ-6B 2.9 19:16:43 10° S 19:20:50 81° WSW 19:24:53 10° NNW
Cosmos 2181 Rocket 4.1 19:17:21 10° N 19:23:43 86° W 19:30:10 10° S
Meteor 1-19 Rocket 4.2 19:20:36 10° N 19:26:23 81° E 19:32:15 10° S
Atlas Centaur 2 4.5 19:21:26 10° W 19:27:23 24° NNW 19:32:34 10° NNE
Cosmos 2297 Rocket 2.1 19:21:53 10° S 19:27:33 75° ESE 19:32:52 12° NNE
ALOS 2.1 19:23:39 10° SSE 19:28:19 73° ENE 19:32:57 10° N
Cosmos 1500 4.4 19:25:11 10° SSE 19:27:21 27° SE 19:27:21 27° SE
Cosmos 2322 4.2 19:24:23 10° N 19:29:32 36° ENE 19:30:44 32° E
Centaur Rocket 3.9 19:25:30 10° W 19:30:49 33° SSW 19:32:06 23° SSE
Cosmos 482 Debris 4.1 19:29:55 10° SSW 19:34:24 57° SE 19:34:24 57° SE
CENTAUR R/B 4.5 19:32:39 10° NW 19:40:16 40° WSW 19:47:38 10° S
Cosmos 2341 Rocket 4.0 19:34:56 10° S 19:41:06 56° E 19:45:35 19° NNE
Helios 1B rocket 4.1 19:41:31 10° NNW 19:45:15 34° WNW 19:49:01 10° SW
Cosmos 2154 Rocket 4.0 19:39:27 10° S 19:45:49 88° W 19:52:10 10° N
Cosmos 2227 Rocket 3.2 19:42:11 10° SW 19:47:32 44° WNW 19:52:52 10° N
Meteor 2-4 Rocket 3.5 19:43:43 10° N 19:49:05 87° W 19:54:26 10° S
Meteor 1-23 Rocket 4.1 19:43:24 10° N 19:49:05 72° E 19:54:42 10° S
Spot 2 Rocket 3.3 19:47:12 10° SSE 19:52:15 89° E 19:57:18 10° NNW
Lacrosse 5 rocket 4.0 19:53:51 10° S 19:54:09 11° S 19:54:09 11° S
Cosmos 2360 Rocket 2.1 19:56:20 10° NNW 20:01:59 82° WSW 20:07:40 10° SSE
SL-19 R/B 4.5 20:02:03 10° S 20:07:36 69° WSW 20:13:09 10° NNW
Ariane H10+ 3.9 19:48:13 10° W 20:08:26 73° N 20:09:38 62° NE
Cosmos 1975 4.2 20:05:31 10° SSW 20:08:30 36° WSW 20:08:30 36° WSW
Centaur AC-119 4.2 20:14:09 10° NW 20:19:01 63° NE 20:19:32 62° NE
Ariane H10 4.5 20:27:16 10° W 20:58:14 58° NNW 20:58:14 58° NNW
